Flag for Switzerland Weather past 2 weeks in Montreux, Vaud, Switzerland

Now
32 °F

Chilly.


Feels Like: 32 °F
Forecast: 7 / 31 °F
Wind: 1 mph from Southeast

Location: Aigle

Current Time: Jan 27, 2015 at 7:01:19 AM

Latest Report: Jan 27, 2015 at 6:00 AM


Visibility: N/A

Pressure: 30.27 "Hg

Humidity: 97%

Dew point: 31 °F

Location of MontreuxLocation

Historic Weather in Montreux — Graph

°F

Montreux temperature yesterday

Maximum temperature yesterday: 34 °F (at 2:00 PM)
Minimum temperature yesterday: 29 °F (at 3:00 AM)
Average temperature yesterday: 31 °F

Past Weeks' High & Low Weather Summary

 TemperatureHumidityPressure
High51 °F (Jan 16, 4:00 AM)100% (Jan 17, 11:00 PM)30.56 "Hg (Jan 17, 11:00 PM)
Low29 °F (Jan 26, 3:00 AM)36% (Jan 13, 12:00 PM)29.68 "Hg (Jan 16, 3:00 PM)
Average37 °F78%30.08 "Hg
* Reported Jan 12 5:00 AM — Jan 27 5:00 AM, Montreux, Weather by CustomWeather, © 2014

Note: Actual official high and low records may vary slightly from our data, if they occured in-between our weather recording intervals... More about our weather records

Advertising

Montreux weather history for previous 24 hours

 ConditionsComfort  
Time TempWeatherWind HumidityBarometerVisibility
5:00 AM
Jan 27
31 °FChilly.No wind97%30.28 "HgN/A
4:00 AM31 °FIce fog.No wind97%30.28 "Hg2 mi
3:00 AM31 °FChilly.1 mph96%30.31 "HgN/A
2:00 AM31 °FChilly.1 mph98%30.30 "HgN/A
1:00 AM31 °FChilly.1 mph96%30.31 "HgN/A
12:00 AM31 °FChilly.5 mph95%30.32 "HgN/A
11:00 PM
Jan 26
31 °FChilly.3 mph95%30.33 "HgN/A
9:00 PM31 °FChilly.6 mph95%30.34 "HgN/A
8:00 PM31 °FChilly.3 mph93%30.35 "HgN/A
7:00 PM31 °FChilly.6 mph92%30.34 "HgN/A
6:00 PM31 °FChilly.3 mph95%30.36 "HgN/A
5:00 PM31 °FChilly.3 mph92%30.36 "HgN/A
4:00 PM32 °FLight snow. Low clouds.6 mph85%30.37 "Hg3 mi
3:00 PM33 °FChilly.5 mph73%30.37 "HgN/A
2:00 PM34 °FChilly.6 mph63%30.37 "HgN/A
1:00 PM34 °FOvercast.8 mph63%30.39 "Hg9 mi
12:00 PM33 °FChilly.10 mph61%30.41 "HgN/A
11:00 AM33 °FChilly.9 mph65%30.41 "HgN/A
10:00 AM32 °FOvercast.2 mph70%30.42 "Hg12 mi
9:00 AM31 °FChilly.3 mph73%30.42 "HgN/A
8:00 AM30 °FChilly.3 mph78%30.42 "HgN/A
7:00 AM31 °FOvercast.2 mph73%30.42 "Hg9 mi
Weather by CustomWeather, © 2014

See weather overviewHow to use our weather pages